SPACEBEE-48 (47447 NORAD) Tracking and Keplerian Element Data

This shows tracking and keplerian element data for the satellite.

Feedback or suggestion? Click here.




ElementValue
Catalog47447
NameSPACEBEE-48
Epoch Orbit1263
Epoch Day106.15016925
Epoch Year2021
RAAN168.4482
Inclination97.4912
Eccentricity0.0010371
Argument of Perigee324.0285
Mean Anonmoly36.0247
Mean Motion15.13206946
Decay Rate2.46E-05
L11 47447U 21006AL 21106.15016925 .00002460 00000-0 14208-3 0 9994
L22 47447 97.4912 168.4482 0010371 324.0285 36.0247 15.13206946 12630

Live tracking and technical data element details for SPACEBEE-48 (NORAD 47447). SPACEBEE-48 can be tracked NOW for your location showing map with azimuth and elevation plus other details from your city location.

Track the satellite on the map from your city or location and see movement details for azimuth, elevation, latitude, longitude, range, height, and movement on the map or in text.







IsCatalogInMostPopularTable: catalog: 47447, numindb: 16
Update: records affected: 1



GetName: 47447 SPACEBEE-48

Hit Count: updated at: Fri, 16 Apr 2021 11:23:42 GMT